CT7AGI-13 Weather Reports


time (UTC)temp
C
wind
direction
speed
KPH
gust
KPH
rain 1hr
cm
rain 24hr
cm
rain mn
cm
humidity
%
barometer
mb
20260503214515 14 253 0.0 1.6 0.00 0.08 0.08 88 1016.1
20260503213533 14 246 0.0 1.6 0.00 0.08 0.08 87 1016.1
20260503212533 14 261 0.0 3.2 0.00 0.08 0.08 87 1016.0
20260503211530 14 278 0.0 3.2 0.00 0.08 0.08 87 1015.8
20260503210531 14 283 0.0 3.2 0.00 0.08 0.08 87 1015.9
20260503205526 14 281 0.0 3.2 0.00 0.08 0.08 86 1015.7
20260503204526 14 279 0.0 3.2 0.00 0.08 0.08 85 1015.6
20260503203522 15 278 0.0 3.2 0.00 0.08 0.08 84 1015.4
20260503202521 15 278 0.0 1.6 0.00 0.08 0.08 84 1015.4
20260503201520 15 284 0.0 4.8 0.00 0.08 0.08 83 1015.2
20260503200517 15 312 1.6 6.4 0.00 0.08 0.08 82 1015.1
20260503195515 15 273 1.6 9.7 0.00 0.08 0.08 82 1015.0
20260503194533 15 308 1.6 9.7 0.00 0.08 0.08 81 1014.9
20260503193532 15 268 1.6 3.2 0.00 0.08 0.08 81 1014.8
20260503192530 15 308 3.2 9.7 0.00 0.08 0.08 81 1014.7
20260503191548 16 250 3.2 9.7 0.00 0.08 0.08 80 1014.6
20260503190546 16 271 3.2 11.3 0.00 0.08 0.08 79 1014.5
20260503185524 17 264 1.6 4.8 0.00 0.08 0.08 78 1014.4
20260503184543 16 307 3.2 11.3 0.00 0.08 0.08 78 1014.4
20260503183522 17 329 6.4 14.5 0.00 0.08 0.08 80 1014.3
20260503182519 16 291 3.2 12.9 0.00 0.08 0.08 82 1014.3
20260503181517 17 279 1.6 9.7 0.00 0.08 0.08 79 1014.3
20260503180515 17 273 1.6 9.7 0.00 0.08 0.08 79 1014.3
20260503175534 16 255 1.6 6.4 0.00 0.08 0.08 81 1014.3
20260503174532 16 313 6.4 17.7 0.00 0.08 0.08 80 1014.4
20260503173531 17 300 3.2 9.7 0.00 0.08 0.08 79 1014.5
20260503172528 17 295 3.2 12.9 0.00 0.08 0.08 77 1014.5
20260503171526 18 280 3.2 14.5 0.00 0.08 0.08 75 1014.5
20260503170526 17 298 3.2 9.7 0.00 0.08 0.08 77 1014.4
20260503150523 19 297 4.8 12.9 0.00 0.08 0.08 73 1014.6
20260503130521 17 303 8.0 20.9 0.00 0.08 0.08 80 1014.8
20260503110519 15 285 1.6 4.8 0.03 0.08 0.08 94 1015.3
20260503081529 16 228 3.2 12.9 0.00 0.53 0.05 89 1014.8
20260503080527 15 225 1.6 4.8 0.00 0.53 0.05 90 1014.8
20260503072540 14 226 1.6 4.8 0.00 0.56 0.05 97 1014.8
20260503071538 14 227 1.6 4.8 0.00 0.56 0.05 98 1014.7
20260503070516 13 235 1.6 4.8 0.00 0.56 0.05 99 1014.9
20260503054542 12 0.0 0.0 0.03 0.56 0.05 99 1014.3
20260503053520 12 226 0.0 3.2 0.03 0.56 0.05 99 1014.3
20260503052518 13 225 0.0 1.6 0.00 0.53 0.03 99 1014.3
20260503051517 13 225 0.0 1.6 0.00 0.53 0.03 99 1014.2
20260503050535 13 232 0.0 1.6 0.00 0.58 0.03 99 1014.3
20260503045533 13 241 0.0 1.6 0.00 0.58 0.03 99 1014.3
20260503044531 13 233 0.0 1.6 0.00 0.58 0.03 99 1014.2
20260503043529 13 224 0.0 1.6 0.00 0.58 0.03 99 1014.3
20260503042527 13 223 0.0 1.6 0.00 0.58 0.03 99 1014.2
20260503041525 13 224 0.0 1.6 0.00 0.58 0.03 99 1014.2
20260503040524 13 226 0.0 3.2 0.00 0.58 0.03 99 1014.2
20260503035522 13 280 0.0 1.6 0.00 0.58 0.03 99 1014.2
20260503034540 13 271 0.0 1.6 0.00 0.58 0.03 99 1014.2
20260503033518 13 231 0.0 1.6 0.00 0.58 0.03 99 1014.3
20260503032516 13 229 1.6 3.2 0.00 0.58 0.03 99 1014.4
20260503031534 13 232 1.6 3.2 0.00 0.58 0.03 99 1014.4
20260503030533 13 229 1.6 3.2 0.00 0.58 0.03 99 1014.5
20260503025531 13 230 1.6 3.2 0.00 0.58 0.03 99 1014.5
20260503024529 14 223 3.2 3.2 0.00 0.58 0.03 99 1014.6
20260503023527 14 232 1.6 4.8 0.00 0.58 0.03 99 1014.7
20260503022605 14 225 1.6 4.8 0.00 0.58 0.03 99 1014.6
20260503021524 14 240 1.6 3.2 0.03 0.58 0.03 99 1014.7
20260503020522 14 232 0.0 1.6 0.03 0.58 0.03 99 1014.7
20260503015520 14 228 1.6 3.2 0.03 0.58 0.03 99 1014.9
20260503014518 14 232 0.0 3.2 0.03 0.58 0.03 99 1014.8
20260503013517 14 227 1.6 3.2 0.03 0.58 0.03 99 1014.9
20260503012535 14 237 0.0 4.8 0.03 0.58 0.03 99 1015.1
20260503011533 14 232 0.0 1.6 0.00 0.56 0.00 99 1015.1
20260503010551 14 229 0.0 3.2 0.00 0.56 0.00 98 1015.1
20260503005529 14 226 1.6 4.8 0.00 0.56 0.00 98 1015.1
20260503004527 14 229 1.6 3.2 0.00 0.56 0.00 98 1015.3
20260503003545 14 228 1.6 4.8 0.00 0.56 0.00 98 1015.4
20260503002524 14 228 1.6 3.2 0.00 0.56 0.00 98 1015.3
20260503001522 15 237 1.6 4.8 0.00 0.56 0.00 98 1015.5
20260503000520 15 237 1.6 3.2 0.00 0.56 0.00 98 1015.5
20260502235518 15 244 1.6 4.8 0.00 0.56 0.00 98 1015.6
20260502234516 15 231 1.6 6.4 0.00 0.56 0.00 98 1015.7
20260502233535 15 230 3.2 4.8 0.00 0.56 0.00 98 1015.8
20260502232533 15 228 1.6 6.4 0.00 0.56 0.00 97 1015.9
20260502231531 15 227 3.2 6.4 0.00 0.56 0.00 97 1016.0
20260502230529 15 252 3.2 9.7 0.00 0.56 0.00 97 1015.9
20260502225527 15 248 1.6 4.8 0.00 0.56 0.56 97 1015.9
20260502224525 15 230 1.6 6.4 0.00 0.56 0.56 97 1016.0
20260502223544 15 240 1.6 4.8 0.00 0.56 0.56 97 1016.0
20260502222522 15 230 1.6 4.8 0.00 0.56 0.56 97 1016.0
20260502221520 15 230 1.6 6.4 0.00 0.56 0.56 97 1016.1
20260502220518 15 233 0.0 3.2 0.00 0.56 0.56 96 1016.1
20260502215516 15 236 1.6 3.2 0.00 0.56 0.56 96 1016.2